When you browse on this site, cookies collect data to enhance your experience and personalize the content and advertising you see.
Visit our Privacy Policy to learn more. By continuing to use the site, you agree to this use of cookies and data.
  • In Sweden
  • List of Countries
  • For 7 days
  • Water Temperature
  • Satellite Maps
  • Weather Map
  • Weather Widgets
  • user-avatar
    Login

    Hourly Weather Durres

    Today, 17 July, Wednesday

    Time Temperature Precipitation Wind Pressure Humidity
    00:00 +19°C° 0 mm 4 mps 755 mmHg 79%
    01:00 +19°C° 0 mm 5 mps 755 mmHg 77%
    02:00 +19°C° 0 mm 6 mps 755 mmHg 77%
    03:00 +17°C° 0 mm 6 mps 755 mmHg 77%
    04:00 +17°C° 0 mm 6 mps 755 mmHg 76%
    05:00 +20°C° 0 mm 6 mps 755 mmHg 71%
    06:00 +22°C° 0 mm 6 mps 755 mmHg 66%
    07:00 +23°C° 0 mm 5 mps 756 mmHg 61%
    08:00 +26°C° 0 mm 4 mps 756 mmHg 54%
    09:00 +28°C° 0 mm 4 mps 756 mmHg 46%
    10:00 +30°C° 0 mm 3 mps 757 mmHg 39%
    11:00 +32°C° 0 mm 4 mps 756 mmHg 38%
    12:00 +33°C° 0 mm 5 mps 756 mmHg 36%
    13:00 +33°C° 0 mm 5 mps 756 mmHg 34%
    14:00 +32°C° 0 mm 6 mps 756 mmHg 38%
    15:00 +30°C° 0 mm 7 mps 756 mmHg 41%
    16:00 +31°C° 0 mm 8 mps 756 mmHg 45%
    17:00 +28°C° 0 mm 7 mps 756 mmHg 51%
    18:00 +26°C° 0 mm 6 mps 756 mmHg 58%
    19:00 +23°C° 0 mm 5 mps 756 mmHg 65%
    20:00 +22°C° 0 mm 5 mps 756 mmHg 67%
    21:00 +22°C° 0 mm 4 mps 757 mmHg 68%
    22:00 +21°C° 0 mm 3 mps 757 mmHg 70%
    23:00 +21°C° 0 mm 3 mps 757 mmHg 70%

    Tomorrow, 18 July, Thursday

    Time Temperature Precipitation Wind Pressure Humidity
    00:00 +21°C° 0 mm 2 mps 757 mmHg 69%
    01:00 +21°C° 0 mm 2 mps 757 mmHg 69%
    02:00 +20°C° 0 mm 2 mps 757 mmHg 67%
    03:00 +20°C° 0 mm 2 mps 757 mmHg 66%
    04:00 +20°C° 0 mm 2 mps 757 mmHg 64%
    05:00 +23°C° 0 mm 2 mps 757 mmHg 60%
    06:00 +24°C° 0 mm 2 mps 757 mmHg 56%
    07:00 +26°C° 0 mm 2 mps 757 mmHg 52%
    08:00 +27°C° 0 mm 2 mps 757 mmHg 48%
    09:00 +29°C° 0 mm 2 mps 757 mmHg 43%
    10:00 +31°C° 0 mm 2 mps 758 mmHg 39%
    11:00 +31°C° 0 mm 3 mps 757 mmHg 38%
    12:00 +33°C° 0 mm 3 mps 757 mmHg 38%
    13:00 +34°C° 0 mm 3 mps 757 mmHg 38%
    14:00 +33°C° 0 mm 3 mps 757 mmHg 41%
    15:00 +31°C° 0 mm 3 mps 757 mmHg 45%
    16:00 +30°C° 0 mm 3 mps 757 mmHg 48%
    17:00 +28°C° 0 mm 3 mps 757 mmHg 53%
    18:00 +27°C° 0 mm 2 mps 757 mmHg 59%
    19:00 +25°C° 0 mm 1 mps 757 mmHg 64%
    20:00 +25°C° 0 mm 1 mps 758 mmHg 66%
    21:00 +24°C° 0 mm 1 mps 758 mmHg 68%
    22:00 +23°C° 0 mm 1 mps 759 mmHg 70%
    23:00 +23°C° 0 mm 1 mps 759 mmHg 70%

    Day after tomorrow, 19 July, Friday

    Time Temperature Precipitation Wind Pressure Humidity
    00:00 +23°C° 0 mm 1 mps 759 mmHg 71%
    01:00 +22°C° 0 mm 1 mps 759 mmHg 72%
    02:00 +22°C° 0 mm 1 mps 759 mmHg 72%
    03:00 +22°C° 0 mm 1 mps 759 mmHg 73%
    04:00 +22°C° 0 mm 1 mps 759 mmHg 73%
    05:00 +23°C° 0 mm 1 mps 759 mmHg 68%
    06:00 +25°C° 0 mm 1 mps 759 mmHg 62%
    07:00 +27°C° 0 mm 1 mps 759 mmHg 56%
    08:00 +28°C° 0 mm 1 mps 759 mmHg 51%
    09:00 +30°C° 0 mm 1 mps 759 mmHg 46%
    10:00 +31°C° 0 mm 1 mps 760 mmHg 42%
    11:00 +32°C° 0 mm 2 mps 760 mmHg 41%
    12:00 +34°C° 0 mm 3 mps 760 mmHg 40%
    13:00 +34°C° 0 mm 4 mps 759 mmHg 39%
    14:00 +33°C° 0 mm 4 mps 759 mmHg 41%
    15:00 +33°C° 0 mm 4 mps 759 mmHg 43%
    16:00 +32°C° 0 mm 4 mps 759 mmHg 44%
    17:00 +29°C° 0 mm 3 mps 759 mmHg 51%
    18:00 +27°C° 0 mm 3 mps 760 mmHg 57%
    19:00 +25°C° 0 mm 2 mps 760 mmHg 64%
    20:00 +25°C° 0 mm 2 mps 760 mmHg 66%
    21:00 +24°C° 0 mm 1 mps 760 mmHg 67%
    22:00 +23°C° 0 mm 1 mps 761 mmHg 69%
    23:00 +23°C° 0 mm 1 mps 761 mmHg 69%

    20 July, Saturday

    Time Temperature Precipitation Wind Pressure Humidity
    00:00 +23°C° 0 mm 1 mps 761 mmHg 69%
    01:00 +23°C° 0 mm 1 mps 761 mmHg 70%
    02:00 +22°C° 0 mm 1 mps 761 mmHg 70%
    03:00 +22°C° 0 mm 1 mps 761 mmHg 71%
    04:00 +22°C° 0 mm 1 mps 760 mmHg 72%
    05:00 +24°C° 0 mm 1 mps 761 mmHg 65%
    06:00 +25°C° 0 mm 1 mps 761 mmHg 59%
    07:00 +27°C° 0 mm 1 mps 761 mmHg 53%
    08:00 +29°C° 0 mm 2 mps 761 mmHg 47%
    09:00 +31°C° 0 mm 2 mps 761 mmHg 42%
    10:00 +33°C° 0 mm 3 mps 761 mmHg 37%
    11:00 +34°C° 0 mm 3 mps 761 mmHg 36%
    12:00 +35°C° 0 mm 4 mps 761 mmHg 35%
    13:00 +35°C° 0 mm 4 mps 761 mmHg 35%
    14:00 +34°C° 0 mm 4 mps 761 mmHg 38%
    15:00 +34°C° 0 mm 4 mps 761 mmHg 41%
    16:00 +33°C° 0 mm 5 mps 761 mmHg 44%
    17:00 +30°C° 0 mm 4 mps 761 mmHg 49%
    18:00 +28°C° 0 mm 3 mps 761 mmHg 55%
    19:00 +26°C° 0 mm 2 mps 761 mmHg 60%
    20:00 +26°C° 0 mm 2 mps 762 mmHg 62%
    21:00 +25°C° 0 mm 1 mps 762 mmHg 64%
    22:00 +24°C° 0 mm 1 mps 762 mmHg 66%
    23:00 +24°C° 0 mm 1 mps 762 mmHg 67%

    21 July, Sunday

    Time Temperature Precipitation Wind Pressure Humidity
    00:00 +24°C° 0 mm 1 mps 762 mmHg 68%
    01:00 +24°C° 0 mm 1 mps 762 mmHg 70%
    02:00 +23°C° 0 mm 2 mps 762 mmHg 70%
    03:00 +23°C° 0 mm 2 mps 761 mmHg 71%
    04:00 +23°C° 0 mm 2 mps 761 mmHg 71%
    05:00 +25°C° 0 mm 2 mps 761 mmHg 65%
    06:00 +27°C° 0 mm 2 mps 762 mmHg 59%
    07:00 +29°C° 0 mm 1 mps 762 mmHg 53%
    08:00 +30°C° 0 mm 2 mps 762 mmHg 49%
    09:00 +33°C° 0 mm 3 mps 762 mmHg 44%
    10:00 +35°C° 0 mm 3 mps 762 mmHg 39%
    11:00 +35°C° 0 mm 4 mps 762 mmHg 38%
    12:00 +36°C° 0 mm 4 mps 762 mmHg 37%
    13:00 +37°C° 0 mm 5 mps 762 mmHg 35%
    14:00 +36°C° 0 mm 5 mps 761 mmHg 37%
    15:00 +35°C° 0 mm 5 mps 761 mmHg 39%
    16:00 +35°C° 0 mm 5 mps 761 mmHg 40%
    17:00 +32°C° 0 mm 5 mps 761 mmHg 47%
    18:00 +29°C° 0 mm 4 mps 761 mmHg 54%
    19:00 +27°C° 0 mm 3 mps 761 mmHg 60%
    20:00 +27°C° 0 mm 2 mps 761 mmHg 62%
    21:00 +26°C° 0 mm 2 mps 762 mmHg 63%
    22:00 +25°C° 0 mm 1 mps 762 mmHg 65%
    23:00 +25°C° 0 mm 1 mps 761 mmHg 65%

    22 July, Monday

    Time Temperature Precipitation Wind Pressure Humidity
    00:00 +25°C° 0 mm 1 mps 761 mmHg 65%
    01:00 +25°C° 0 mm 1 mps 761 mmHg 65%
    02:00 +25°C° 0 mm 1 mps 761 mmHg 66%
    03:00 +25°C° 0 mm 1 mps 761 mmHg 67%
    04:00 +25°C° 0 mm 2 mps 761 mmHg 68%
    05:00 +26°C° 0 mm 2 mps 761 mmHg 63%
    06:00 +28°C° 0 mm 2 mps 761 mmHg 58%
    07:00 +30°C° 0 mm 1 mps 761 mmHg 52%
    08:00 +32°C° 0 mm 1 mps 761 mmHg 47%
    09:00 +34°C° 0 mm 1 mps 761 mmHg 42%
    10:00 +36°C° 0 mm 1 mps 761 mmHg 37%
    11:00 +37°C° 0 mm 2 mps 760 mmHg 36%
    12:00 +38°C° 0 mm 3 mps 760 mmHg 35%
    13:00 +40°C° 0 mm 4 mps 760 mmHg 34%
    14:00 +38°C° 0 mm 4 mps 760 mmHg 36%
    15:00 +36°C° 0 mm 5 mps 759 mmHg 39%
    16:00 +35°C° 0 mm 5 mps 759 mmHg 41%
    17:00 +33°C° 0 mm 4 mps 759 mmHg 46%
    18:00 +31°C° 0 mm 3 mps 759 mmHg 51%
    19:00 +29°C° 0 mm 2 mps 759 mmHg 56%
    20:00 +28°C° 0 mm 2 mps 759 mmHg 58%
    21:00 +27°C° 0 mm 2 mps 759 mmHg 60%
    22:00 +26°C° 0 mm 2 mps 759 mmHg 62%
    23:00 +26°C° 0 mm 2 mps 759 mmHg 63%
    Show more